Weather History for Lancaster, OH

Change the Weather History Date:

Sunday, March 17, 2013

  Actual Average Record
Temperature  
Mean Temperature 34 °F -  
Max Temperature 37 °F 48 °F 75 °F (2012)
Min Temperature 32 °F 27 °F 8 °F (1941)
Degree Days  
Heating Degree Days 30    
Moisture  
Dew Point 26 °F    
Average Humidity 73    
Maximum Humidity 85    
Minimum Humidity 59    
Precipitation  
Precipitation 0.00 in - - ()
Sea Level Pressure  
Sea Level Pressure 30.12 in    
Wind  
Wind Speed 7 mph (ENE)    
Max Wind Speed 13 mph    
Max Gust Speed -    
Visibility 10 miles    
Events      
Averages and records for this station are not official NWS values.
T = Trace of Precipitation, MM = Missing Value Source: NWS Daily Summary

Daily Weather History Graph

Daily Weather History Graph

Search for Another Location

Airport:

Trip Planner

Search our weather history database for the weather conditions in past years. The results will help you decide how hot, cold, wet, or windy it might be!

Date:

Astronomy

Mar. 17, 2013 Rise Set
Actual Time 7:38 AM EDT 7:39 PM EDT
Civil Twilight 7:11 AM EDT 8:06 PM EDT
Nautical Twilight 6:40 AM EDT 8:38 PM EDT
Astronomical Twilight 6:08 AM EDT 9:10 PM EDT
Moon 10:51 AM EDT (3/17) 12:46 AM EDT (3/17)
Length of Visible Light 12h 55m
Length of Day
12h 01m
Waxing Crescent, 31% of the Moon is Illuminated
Mar 17
Waxing Crescent
Mar 19
First Quarter
Mar 27
Full
Apr 3
Last Quarter
Apr 10
New

Hourly Weather History & Observations

Time (EDT) Temp. Windchill Dew Point Humidity Pressure Visibility Wind Dir Wind Speed Gust Speed Precip Events Conditions
12:53 AM 33.1 °F 27.7 °F 28.0 °F 82% 30.04 in 10.0 mi NW 5.8 mph - N/A   Overcast
1:53 AM 33.1 °F 28.7 °F 28.0 °F 82% 30.04 in 10.0 mi NNW 4.6 mph - N/A   Overcast
2:53 AM 32.0 °F 26.4 °F 28.0 °F 85% 30.05 in 10.0 mi North 5.8 mph - N/A   Overcast
3:53 AM 32.0 °F 25.6 °F 28.0 °F 85% 30.07 in 10.0 mi NNE 6.9 mph - N/A   Overcast
4:53 AM 32.0 °F 23.6 °F 27.0 °F 82% 30.05 in 10.0 mi NNE 10.4 mph - N/A   Overcast
5:37 AM 32.0 °F 24.8 °F 26.6 °F 80% 30.06 in 10.0 mi NNE 8.1 mph - N/A   Overcast
5:53 AM 32.0 °F 24.8 °F 26.1 °F 79% 30.09 in 10.0 mi NE 8.1 mph - N/A   Overcast
6:53 AM 32.0 °F 27.5 °F 26.1 °F 79% 30.12 in 10.0 mi NE 4.6 mph - N/A   Overcast
7:53 AM 32.0 °F 28.7 °F 26.1 °F 79% 30.16 in 10.0 mi East 3.5 mph - N/A   Overcast
8:53 AM 33.1 °F 30.0 °F 26.1 °F 75% 30.18 in 10.0 mi East 3.5 mph - N/A   Overcast
9:53 AM 33.1 °F 30.0 °F 26.1 °F 75% 30.20 in 9.0 mi East 3.5 mph - N/A   Overcast
10:53 AM 33.1 °F 26.9 °F 27.0 °F 78% 30.18 in 8.0 mi East 6.9 mph - N/A   Overcast
11:53 AM 34.0 °F 25.5 °F 27.0 °F 75% 30.18 in 9.0 mi East 11.5 mph - N/A   Overcast
12:53 PM 35.1 °F 27.4 °F 27.0 °F 72% 30.19 in 10.0 mi ENE 10.4 mph - N/A   Overcast
1:53 PM 34.0 °F 27.2 °F 26.1 °F 73% 30.18 in 10.0 mi ENE 8.1 mph - N/A   Overcast
2:53 PM 36.0 °F 29.6 °F 26.1 °F 67% 30.15 in 10.0 mi ENE 8.1 mph - N/A   Overcast
3:49 PM 37.4 °F 30.8 °F 26.6 °F 65% 30.13 in 10.0 mi East 9.2 mph - N/A   Scattered Clouds
3:53 PM 37.0 °F 30.4 °F 24.1 °F 59% 30.15 in 10.0 mi ESE 9.2 mph - N/A   Scattered Clouds
4:53 PM 37.0 °F 30.4 °F 25.0 °F 62% 30.14 in 10.0 mi East 9.2 mph - N/A   Overcast
5:53 PM 37.0 °F 29.3 °F 25.0 °F 62% 30.14 in 10.0 mi ESE 11.5 mph - N/A   Overcast
6:53 PM 37.0 °F 31.0 °F 26.1 °F 65% 30.14 in 10.0 mi East 8.1 mph - N/A   Clear
7:53 PM 36.0 °F 29.6 °F 25.0 °F 64% 30.13 in 10.0 mi East 8.1 mph - N/A   Mostly Cloudy
8:53 PM 36.0 °F 29.6 °F 26.1 °F 67% 30.14 in 10.0 mi East 8.1 mph - N/A   Overcast
9:53 PM 35.1 °F 26.4 °F 26.1 °F 70% 30.13 in 10.0 mi East 12.7 mph - N/A   Overcast
10:53 PM 34.0 °F 28.0 °F 25.0 °F 70% 30.12 in 10.0 mi East 6.9 mph - N/A   Overcast
11:53 PM 34.0 °F 26.6 °F 25.0 °F 70% 30.09 in 10.0 mi East 9.2 mph - N/A   Overcast